TimeMST,TemperatureF,Dew PointF,Humidity,Sea Level PressureIn,VisibilityMPH,Wind Direction,Wind SpeedMPH,Gust SpeedMPH,PrecipitationIn,Events,Conditions,WindDirDegrees,DateUTC
12:08 AM,3.0,-2.0,80,30.28,2.5,NW,11.5,-,0.00,Snow,Light Snow,310,2013-12-04 07:08:00
12:17 AM,3.0,-2.0,80,30.27,4.0,NW,11.5,-,0.00,Snow,Light Snow,310,2013-12-04 07:17:00
12:53 AM,3.0,-2.9,76,30.45,4.0,NW,12.7,-,0.00,Snow,Light Snow,310,2013-12-04 07:53:00
1:53 AM,1.0,-4.0,79,30.45,4.0,NW,11.5,-,0.00,Snow,Light Snow,310,2013-12-04 08:53:00
2:00 AM,1.0,-5.1,75,30.27,6.0,NW,10.4,-,0.00,Snow,Light Snow,310,2013-12-04 09:00:00
2:35 AM,-2.9,-8.0,79,30.28,9.0,SW,5.8,-,0.00,,Scattered Clouds,220,2013-12-04 09:35:00
2:53 AM,-4.0,-9.0,79,30.46,10.0,WSW,8.1,-,0.00,,Mostly Cloudy,240,2013-12-04 09:53:00
3:53 AM,-2.0,-7.1,79,30.45,6.0,West,8.1,-,0.00,Snow,Light Snow,280,2013-12-04 10:53:00
4:53 AM,-0.9,-6.0,79,30.44,10.0,West,6.9,-,0.00,,Overcast,260,2013-12-04 11:53:00
5:53 AM,-0.9,-6.0,79,30.44,10.0,West,6.9,-,0.00,,Overcast,270,2013-12-04 12:53:00
6:53 AM,-2.0,-7.1,79,30.46,10.0,West,11.5,-,N/A,,Partly Cloudy,260,2013-12-04 13:53:00
7:53 AM,-2.0,-7.1,79,30.47,8.0,West,10.4,-,N/A,,Overcast,260,2013-12-04 14:53:00
8:21 AM,-2.0,-6.0,83,30.28,2.5,WSW,9.2,-,0.00,Snow,Light Snow,250,2013-12-04 15:21:00
8:38 AM,-0.0,-5.1,79,30.29,1.2,West,10.4,-,0.00,Snow,Light Snow,260,2013-12-04 15:38:00
8:46 AM,-0.0,-5.1,79,30.29,2.0,West,10.4,-,0.00,Snow,Light Snow,260,2013-12-04 15:46:00
8:53 AM,-0.0,-5.1,79,30.48,2.5,West,10.4,-,0.00,Snow,Light Snow,260,2013-12-04 15:53:00
9:21 AM,-0.0,-5.1,79,30.29,3.0,West,9.2,-,0.01,Snow,Light Snow,260,2013-12-04 16:21:00
9:28 AM,-0.0,-5.1,79,30.29,1.8,West,9.2,-,0.01,Snow,Light Snow,270,2013-12-04 16:28:00
9:37 AM,-0.0,-4.0,83,30.30,3.0,WSW,9.2,-,0.01,Snow,Light Snow,250,2013-12-04 16:37:00
9:53 AM,1.0,-4.0,79,30.49,1.8,West,9.2,-,0.01,Snow,Light Snow,260,2013-12-04 16:53:00
10:14 AM,1.9,-4.0,76,30.30,1.2,West,12.7,-,0.00,Snow,Light Snow,280,2013-12-04 17:14:00
10:37 AM,1.9,-4.0,76,30.30,1.8,WNW,12.7,-,0.00,Snow,Light Snow,300,2013-12-04 17:37:00
10:44 AM,1.9,-5.1,72,30.30,2.0,NW,12.7,-,0.00,Snow,Light Snow,320,2013-12-04 17:44:00
10:53 AM,1.0,-5.1,75,30.49,2.0,NW,16.1,-,0.01,Snow,Light Snow,310,2013-12-04 17:53:00
11:03 AM,1.0,-5.1,75,30.30,3.0,NW,15.0,-,0.00,Snow,Light Snow,310,2013-12-04 18:03:00
11:20 AM,1.0,-6.0,72,30.29,5.0,NW,12.7,-,0.00,,Haze,310,2013-12-04 18:20:00
11:37 AM,1.0,-6.0,72,30.29,6.0,NW,16.1,-,0.00,,Haze,310,2013-12-04 18:37:00
11:53 AM,1.9,-5.1,72,30.48,2.5,WNW,16.1,-,0.00,Snow,Light Snow,300,2013-12-04 18:53:00
12:04 PM,1.9,-6.0,69,30.29,5.0,WNW,15.0,-,0.00,,Haze,300,2013-12-04 19:04:00
12:53 PM,1.0,-6.0,72,30.48,8.0,WNW,12.7,-,0.00,,Overcast,300,2013-12-04 19:53:00
1:53 PM,1.0,-6.0,72,30.48,9.0,WNW,13.8,-,N/A,,Overcast,290,2013-12-04 20:53:00
2:18 PM,-0.0,-8.0,69,30.28,10.0,WNW,12.7,-,N/A,,Scattered Clouds,290,2013-12-04 21:18:00
2:53 PM,-0.9,-8.0,72,30.48,10.0,West,12.7,-,N/A,,Clear,280,2013-12-04 21:53:00
3:53 PM,-5.1,-11.0,76,30.49,10.0,West,10.4,-,N/A,,Partly Cloudy,270,2013-12-04 22:53:00
4:53 PM,-8.0,-14.1,75,30.50,10.0,WNW,4.6,-,N/A,,Scattered Clouds,290,2013-12-04 23:53:00
5:53 PM,-14.1,-18.0,82,30.52,10.0,SW,4.6,-,N/A,,Mostly Cloudy,230,2013-12-05 00:53:00
6:53 PM,-11.9,-16.1,82,30.52,10.0,West,5.8,-,N/A,,Mostly Cloudy,260,2013-12-05 01:53:00
7:53 PM,-11.9,-17.0,78,30.52,9.0,South,3.5,-,N/A,,Overcast,180,2013-12-05 02:53:00
8:53 PM,-8.0,-14.1,75,30.50,10.0,WSW,8.1,-,N/A,,Overcast,250,2013-12-05 03:53:00
9:53 PM,-11.9,-17.0,78,30.51,10.0,SW,8.1,-,N/A,,Overcast,230,2013-12-05 04:53:00
10:53 PM,-11.0,-17.0,75,30.51,10.0,SW,8.1,-,N/A,,Overcast,220,2013-12-05 05:53:00
11:53 PM,-18.0,-22.0,82,30.51,10.0,WSW,9.2,-,N/A,,Scattered Clouds,240,2013-12-05 06:53:00